CanjetBLOCKVirtuelBLOCKQcBLOCKBLOCKBLOCKBLOCKBLOCKBLOCKBLOCKBLOCKBLOCKBLOCKBLOCKvolsBLOCKavecBLOCKFS-kACARS2019-12-15BLOCK08colon15am

volsBLOCKBLOCKBLOCKBLOCKBLOCKpilotesBLOCKBLOCKBLOCKBLOCKBLOCKBLOCKBLOCKBLOCKtypeBLOCKBLOCKdepBLOCKBLOCKarrBLOCKBLOCKBLOCKBLOCKBLOCKaltBLOCKBLOCKBLOCKBLOCKBLOCKgsBLOCKBLOCKBLOCKBLOCKstatut

cja9999PierreBLOCKBB738CYUL-KMDW35932ft383kts09colon07am
CJA9999StephaneBLOCKGA388UBBB-YSSY0ft0ktsarrived









BLOCKAppuyerBLOCKsurBLOCKF5BLOCKpourBLOCKactualiserBLOCKBLOCKBLOCKMiseBLOCKaBLOCKjourcolonBLOCK08colon15colon17amCanjetBLOCKvirtuelBLOCKQC

Boeing et la confiance

Publié par Yvan Roy le 2019-11-15

 


 

                                                          

 


  


Microsoft flight sim 2020

Publié par Yvan Roy le 2019-06-25

 

Microsoft flight simulator 2020 encore plus fort sera disponible pour votre PC au début 2020 .

 

https://www.flightsimulator.com/
 

                                                   

 





Bienvenue chez Canjetvirtuel-Q

Publié par Michel Ayotte le 2013-06-14

 

Canjetvirtuel-Québec est une compagnie aérienne virtuelle qui a été fondée par 2 passionnés de la simulation de vol.

Elle est opérée avec les Boeing 737. Exceptionnelement et pour votre plaisir les Boeing 747,757,767 et 777 sont autorisés pour des vols de plus de 1,5 heure.

Ces appareils pouvant faire des vols cargos ou des vols passagers,que ce soit au Canada, Europe, États-Unis, Mexique et Caraïbes.

Vous trouverez votre place comme pilote chez nous!



Avis

Aux fins de la simulation de vol seulement. CanjetVirtuel Québec n'est en aucun cas affilié avec n'importe quelle compagnie aérienne du monde réel. CanjetVirtuel Québec est un site à but non lucratif gérée par des amateurs de simulation de vol. Toutes les images sont la propriété exclusive de leurs propriétaires respectifs.
| propulsé par phpVMS, © 2013-2019.

Notice

For flight simulation purposes only. CanjetVirtuel Quebec is in no way affiliated with any real world airline. CanjetVirtuel Quebec is a non-profit site run by flight simulation enthusiasts. All images are the sole property of their respective owners.
| powered by phpVMS, © 2013-2019.

Affiliations

Vatsim

Les statistiques du site

Nombre de pilotes: 14
Total des vols effectués: 5070
Trajets disponibles: 543
Passagers transportés: 958181
Total des heures de vol: 15741
Distance totale (NM): 6145879
Pilotes en ligne: 2

METAR

CYHZ 151300Z 20018G26KT 6SM BR BKN005 OVC016 09/08 A2919 RMK SF5SC3 SLP888 DENSITY ALT 700FT

CYQB 151300Z 25026G34KT 1 1/4SM -SN VV014 M00/M02 A2904 RMK SN8 SLP837

CYUL 151300Z 27020G30KT 15SM -SN BKN016 OVC025 M01/M04 A2938 RMK SC7SC1 PRESRR SLP951

CYYZ 151300Z 28016G24KT 15SM -SN BKN040 OVC080 00/M05 A2974 RMK SC7AC1 PRESRR SLP078